CZ-6A DEB, 61320

Orbit data source: Space-Track

CZ-6A DEB, 61320 is space debris in LEO originally from a launch on Tue, 06 Aug 2024 UTC launched from the Taiyaun Space Center, China (TSC). Debris objects in space refer to the collection of defunct objects orbiting the Earth. Examples of debris include non-operational satellites, rocket bodies, and fragments generated from explosions, collisions, or faulty payload assembly.

Loading next visibility...
Identifier
61320, 2024-140UH
Orbit
LEO
Country
Flag of CNCN / PRC
Related business
Manufacturer
SAST
Mission
Spacecraft
Bus & Motor
Unknown
Mass
Unknown
Launch date (UTC)
2024-08-06 (1 year ago)
Launch vehicle
Unknown
Launch site
Taiyaun Space Center, China (TSC)
Object type
Payload
Rocket body
Debris
Shape & HBR
Unknown shape, 0.1 m
Radar Cross Section
Small (<0.1 m²)

Expand to show TLE details & history
Last TLE update: 6 hours ago

TLE from 6 hours ago
0 CZ-6A DEB
1 61320U 24140UH  25355.06697498  .00000377  00000-0  15198-3 0  9996
2 61320  89.0009 294.2169 0016961  30.1769 330.0398 14.25907489 68180
Epoch: 2025-12-21T01:36Z
TLE epoch observation values (Epoch: 2025-12-21T01:36:26.638Z)
Latitude
0.00003°
Longitude
-179.77884°
Altitude
797.952 km
Speed
7.46 km/s
True Right ascension
19h 36m 52s
True Declination
0° 00' 00"
Sunlit
Object was in daylight at epoch
Visualization orbit readout
Latitude
Unknown
Longitude
Unknown
Altitude
Unknown
Speed
Unknown
Apparent Right ascension
Unknown
Apparent Declination
Unknown
Sunlit
N/A
Visualization observer readout
Local Sidereal Time
07:05:09
Azimuth
Unknown
Elevation
Unknown
Doppler factor
Unknown
Orbital elements
Apogee altitude
814.565 km
Perigee altitude
790.207 km
Semi-major axis
7,180.523 km
Eccentricity
0.0017
Inclination
89.0009°
RAAN
294.2169°
Arg. of periapsis
30.1769°
True anomaly
329.94256°
Mean anomaly
330.0398°
Eccentric anomaly
329.9912°
Mean motion
3.56705 °/min
Orbital period
100.92 mins
BSTAR
0.00015198
Loading maneuver chart data...
Computing Atmospheric mass density...

Documentation

Showing up to 5 results
|